THORAD AGENA D DEB, 5691

Orbit data source: Space-Track

THORAD AGENA D DEB, 5691 is space debris in SSO originally from a launch on Wed, 08 Apr 1970 UTC launched from the Air Force Western Test Range (AFWTR). Debris objects in space refer to the collection of defunct objects orbiting the Earth. Examples of debris include non-operational satellites, rocket bodies, and fragments generated from explosions, collisions, or faulty payload assembly.

Loading next visibility...
Identifier
5691, 1970-025LW
Orbit
SSO
Country
Flag of USUS
Related business
Manufacturer
Unknown
Mission
Spacecraft
Bus & Motor
Unknown
Mass
Unknown
Launch date (UTC)
1970-04-08 (56 years ago)
Launch vehicle
Unknown
Launch site
Air Force Western Test Range (AFWTR)
Object type
Payload
Rocket body
Debris
Shape & HBR
Unknown shape, 0.1 m
Radar Cross Section
Small (<0.1 m²)

Expand to show TLE details & history
Last TLE update: 21 hours ago

TLE from 21 hours ago
0 THORAD AGENA D DEB
1 05691U 70025LW  26208.17467318  .00001643  00000-0  96506-3 0  9993
2 05691  98.8917 281.0123 0035833 137.1297 223.2676 14.09184897835302
Epoch: 2026-07-27T04:11Z
TLE epoch observation values (Epoch: 2026-07-27T04:11:31.762Z)
Latitude
-0.00007°
Longitude
-86.73206°
Altitude
883.995 km
Speed
7.401 km/s
True Right ascension
18h 44m 02s
True Declination
0° 00' 00"
Sunlit
Object was in full shadow at epoch
Visualization orbit readout
Latitude
Unknown
Longitude
Unknown
Altitude
Unknown
Speed
Unknown
Apparent Right ascension
Unknown
Apparent Declination
Unknown
Sunlit
N/A
Visualization observer readout
Local Sidereal Time
14:25:37
Azimuth
Unknown
Elevation
Unknown
Doppler factor
Unknown
Orbital elements
Apogee altitude
885.278 km
Perigee altitude
833.41 km
Semi-major axis
7,237.481 km
Eccentricity
0.00358
Inclination
98.8917°
RAAN
281.0123°
Arg. of periapsis
137.1297°
True anomaly
222.98708°
Mean anomaly
223.2676°
Eccentric anomaly
223.12725°
Mean motion
3.52502 °/min
Orbital period
102.13 mins
BSTAR
0.00096506

Documentation

Showing up to 5 results
|